This is the latest recevied weather packets stored in our database for station/object K1WJY. If no packets are shown the sender has not sent any weather packets the latest 10 day(s).
| Time | Temp. | Humidity | Pressure | Rain* | Wind** | Luminosity | Snow |
|---|---|---|---|---|---|---|---|
| 1787615405 | 18.33° C | 99% | 1016.4 hPa | 0 mm | - | 0 W/m² | - |
| 1787615102 | 18.89° C | 99% | 1016 hPa | 0 mm | - | 0 W/m² | - |
| 1787614798 | 18.89° C | 99% | 1016.2 hPa | 0 mm | - | 0 W/m² | - |
| 1787614494 | 18.89° C | 98% | 1016.2 hPa | 0 mm | - | 0 W/m² | - |
| 1787614191 | 18.89° C | 98% | 1016 hPa | 0 mm | - | 0 W/m² | - |
| 1787613887 | 19.44° C | 97% | 1015.9 hPa | 0 mm | - | 1 W/m² | - |
| 1787613582 | 19.44° C | 96% | 1015.9 hPa | 0 mm | - | 3 W/m² | - |
| 1787613277 | 19.44° C | 95% | 1015.9 hPa | 0 mm | - | 5 W/m² | - |
| 1787612974 | 20° C | 94% | 1015.9 hPa | 0 mm | - | 9 W/m² | - |
| 1787612670 | 20° C | 93% | 1015.6 hPa | 0 mm | - | 12 W/m² | - |
| 1787612366 | 20° C | 92% | 1015.9 hPa | 0 mm | - | 17 W/m² | - |
| 1787612061 | 20.56° C | 91% | 1015.9 hPa | 0 mm | - | 20 W/m² | - |
| 1787611758 | 20.56° C | 90% | 1015.7 hPa | 0 mm | - | 24 W/m² | - |
| 1787611454 | 20.56° C | 89% | 1015.7 hPa | 0 mm | - | 27 W/m² | - |
| 1787611154 | 21.11° C | 87% | 1015.6 hPa | 0 mm | - | 32 W/m² | - |
| 1787610849 | 21.11° C | 86% | 1015.5 hPa | 0 mm | - | 35 W/m² | - |
| 1787610545 | 21.67° C | 84% | 1015.7 hPa | 0 mm | - | 38 W/m² | - |
| 1787610245 | 21.67° C | 84% | 1015.7 hPa | 0 mm | - | 40 W/m² | - |
| 1787609944 | 22.22° C | 82% | 1015.6 hPa | 0 mm | - | 44 W/m² | - |
| 1787609643 | 22.22° C | 81% | 1015.5 hPa | 0 mm | - | 47 W/m² | - |
| 1787609339 | 22.78° C | 79% | 1015.5 hPa | 0 mm | - | 80 W/m² | - |
| 1787609038 | 22.78° C | 78% | 1015.4 hPa | 0 mm | - | 71 W/m² | - |
| 1787608733 | 22.78° C | 77% | 1015.5 hPa | 0 mm | - | 100 W/m² | - |
| 1787608432 | 22.78° C | 77% | 1015.7 hPa | 0 mm | - | 125 W/m² | - |
| 1787608129 | 22.78° C | 76% | 1015.3 hPa | 0 mm | - | 121 W/m² | - |
* Rain latest hour (hover to see other rain measurements)
** Current wind speed in m/s (hover to see current wind gust speed)